Date String (YYYY-MM-DD hh:mm:ss) UTC,Instrument flags,Ambient pressure (hPa),Sample flow (lpm),Bypass flow (lpm),Sample temperature (°C),Ambient temperature (°C),ASC tube jacket temperature (°C),LED temperature (°C),Box temperature (°C),Sample RH (%),Span deviation,Mass concentration (μg/m³),Mass concentration (μg/m³),Mass concentration (μg/m³)
DateTimeUTC,F1_M11,P_M11,Q1_M11,Q2_M11,T1_M11,T2_M11,T3_M11,T4_M11,T5_M11,U1_M11,ZSPAN_M11,X0_M11,X2_M11,X1_M11
2021-09-23 07:00:00,,0829.1,4.99,0.00,30.0,29.0,00.0,39.1,31.7,08.5,0000.0,0002.68,0001.44,0001.03
2021-09-23 07:01:00,,0829.1,5.01,0.00,30.0,29.0,00.0,39.1,31.7,08.5,0000.0,0002.67,0001.41,0001.02
2021-09-23 07:02:00,,0829.1,4.98,0.00,30.0,29.0,00.0,39.1,31.8,08.5,0000.0,0002.61,0001.36,0001.00
2021-09-23 07:03:00,,0829.0,5.01,0.00,30.1,29.0,00.0,39.2,31.8,08.5,0000.0,0002.52,0001.34,0000.99
2021-09-23 07:04:00,,0829.2,4.99,0.00,30.1,29.1,00.0,39.2,31.8,08.5,0000.0,0002.32,0001.30,0000.98
2021-09-23 07:05:00,,0828.9,4.99,0.00,30.1,29.1,00.0,39.2,31.8,08.5,0000.0,0002.54,0001.29,0000.98
2021-09-23 07:06:00,,0829.0,5.01,0.00,30.1,29.1,00.0,39.2,31.8,08.5,0000.0,0003.32,0001.27,0000.99
2021-09-23 07:07:00,,0829.0,5.00,0.00,30.1,29.1,00.0,39.2,31.8,08.5,0000.0,0003.89,0001.24,0000.99
2021-09-23 07:08:00,,0828.9,5.00,0.00,30.1,29.1,00.0,39.2,31.9,08.4,0000.0,0004.29,0001.25,0001.00
2021-09-23 07:09:00,,0828.8,4.99,0.00,30.1,29.1,00.0,39.2,31.9,08.4,0000.0,0004.39,0001.28,0001.00
2021-09-23 07:10:00,,0828.9,5.02,0.00,30.1,29.2,00.0,39.2,31.9,08.4,0000.0,0004.55,0001.34,0001.00
2021-09-23 07:11:00,,0829.0,4.98,0.00,30.1,29.2,00.0,39.2,31.9,08.4,0000.0,0004.55,0001.36,0001.00
2021-09-23 07:12:00,,0829.0,5.02,0.00,30.2,29.2,00.0,39.2,31.9,08.4,0000.0,0005.15,0001.37,0001.00
2021-09-23 07:13:00,,0829.0,4.99,0.00,30.2,29.2,00.0,39.3,31.9,08.4,0000.0,0005.25,0001.37,0001.00
2021-09-23 07:14:00,,0829.0,5.00,0.00,30.2,29.2,00.0,39.3,31.9,08.3,0000.0,0005.49,0001.40,0000.99
2021-09-23 07:15:00,,0828.9,5.00,0.00,30.2,29.2,00.0,39.3,32.0,08.3,0000.0,0005.89,0001.43,0001.00
2021-09-23 07:16:00,,0828.8,5.00,0.00,30.2,29.3,00.0,39.3,32.0,08.3,0000.0,0005.92,0001.46,0001.00
2021-09-23 07:17:00,,0828.7,5.01,0.00,30.2,29.3,00.0,39.3,32.0,08.3,0000.0,0005.73,0001.50,0001.00
2021-09-23 07:18:00,,0828.9,5.00,0.00,30.2,29.3,00.0,39.3,32.0,08.3,0000.0,0005.44,0001.53,0000.99
2021-09-23 07:19:00,,0829.1,5.01,0.00,30.2,29.4,00.0,39.3,32.0,08.3,0000.0,0005.49,0001.52,0000.99
2021-09-23 07:20:00,,0829.1,4.99,0.00,30.3,29.4,00.0,39.3,32.0,08.2,0000.0,0006.48,0001.52,0000.98
2021-09-23 07:21:00,,0829.1,5.02,0.00,30.2,29.3,00.0,39.4,32.0,08.2,0000.0,0006.39,0001.47,0000.98
2021-09-23 07:22:00,,0828.7,4.98,0.00,30.2,29.3,00.0,39.4,32.0,08.2,0000.0,0006.51,0001.51,0000.98
2021-09-23 07:23:00,,0828.6,5.00,0.00,30.2,29.3,00.0,39.4,32.0,08.2,0000.0,0006.05,0001.54,0000.98
2021-09-23 07:24:00,,0828.5,5.00,0.00,30.2,29.3,00.0,39.4,32.0,08.2,0000.0,0005.79,0001.55,0000.98
2021-09-23 07:25:00,,0828.5,5.00,0.00,30.2,29.3,00.0,39.4,32.0,08.2,0000.0,0005.61,0001.49,0000.98
2021-09-23 07:26:00,,0828.5,5.01,0.00,30.2,29.3,00.0,39.4,32.0,08.3,0000.0,0005.41,0001.46,0000.97
2021-09-23 07:27:00,,0828.5,5.00,0.00,30.2,29.3,00.0,39.4,31.9,08.1,0000.0,0006.23,0001.44,0000.96
2021-09-23 07:28:00,,0828.6,4.99,0.00,30.2,29.3,00.0,39.4,31.9,08.2,0000.0,0005.65,0001.40,0000.94
2021-09-23 07:29:00,,0828.5,4.99,0.00,30.2,29.3,00.0,39.3,31.9,08.1,0000.0,0005.34,0001.38,0000.95
2021-09-23 07:30:00,,0828.5,4.99,0.00,30.2,29.3,00.0,39.3,31.9,08.0,0000.0,0004.88,0001.34,0000.96
2021-09-23 07:31:00,,0828.5,4.99,0.00,30.2,29.3,00.0,39.3,31.9,08.0,0000.0,0003.44,0001.33,0000.96
2021-09-23 07:32:00,,0828.5,5.00,0.00,30.2,29.3,00.0,39.3,31.9,08.0,0000.0,0003.49,0001.33,0000.95
2021-09-23 07:33:00,,0828.5,5.01,0.00,30.2,29.3,00.0,39.3,31.9,07.9,0000.0,0003.44,0001.31,0000.96
2021-09-23 07:34:00,,0828.5,5.00,0.00,30.2,29.3,00.0,39.4,32.0,08.0,0000.0,0003.40,0001.28,0000.95
2021-09-23 07:35:00,,0828.4,4.99,0.00,30.2,29.3,00.0,39.4,32.0,07.9,0000.0,0003.34,0001.24,0000.94
2021-09-23 07:36:00,,0828.5,5.01,0.00,30.3,29.3,00.0,39.4,32.0,07.9,0000.0,0004.60,0001.24,0000.94
2021-09-23 07:37:00,,0828.5,4.99,0.00,30.3,29.3,00.0,39.4,31.9,07.9,0000.0,0004.93,0001.23,0000.93
2021-09-23 07:38:00,,0828.5,5.00,0.00,30.3,29.3,00.0,39.4,32.0,07.8,0000.0,0003.94,0001.22,0000.93
2021-09-23 07:39:00,,0828.5,4.99,0.00,30.3,29.3,00.0,39.4,32.0,07.8,0000.0,0004.31,0001.22,0000.93
2021-09-23 07:40:00,,0828.5,4.99,0.00,30.3,29.3,00.0,39.4,32.0,07.8,0000.0,0004.47,0001.24,0000.93
2021-09-23 07:41:00,,0828.5,5.01,0.00,30.3,29.3,00.0,39.4,32.0,07.7,0000.0,0004.55,0001.26,0000.92
2021-09-23 07:42:00,,0828.5,5.00,0.00,30.3,29.3,00.0,39.4,32.0,07.7,0000.0,0005.52,0001.25,0000.92
2021-09-23 07:43:00,,0828.5,4.99,0.00,30.3,29.4,00.0,39.4,32.0,07.8,0000.0,0005.34,0001.20,0000.91
2021-09-23 07:44:00,,0828.5,5.00,0.00,30.3,29.4,00.0,39.4,32.1,07.8,0000.0,0005.26,0001.16,0000.90
2021-09-23 07:45:00,,0828.4,5.01,0.00,30.3,29.3,00.0,39.4,32.0,07.9,0000.0,0006.11,0001.16,0000.89
2021-09-23 07:46:00,,0828.5,4.99,0.00,30.2,29.3,00.0,39.4,32.0,07.9,0000.0,0006.01,0001.13,0000.90
2021-09-23 07:47:00,,0828.5,5.00,0.00,30.2,29.3,00.0,39.4,31.9,07.8,0000.0,0005.32,0001.13,0000.89
2021-09-23 07:48:00,,0828.4,5.00,0.00,30.2,29.3,00.0,39.4,31.9,07.8,0000.0,0004.21,0001.16,0000.90
2021-09-23 07:49:00,,0828.5,4.99,0.00,30.2,29.3,00.0,39.4,31.9,07.9,0000.0,0004.19,0001.16,0000.91
2021-09-23 07:50:00,,0828.4,5.00,0.00,30.2,29.3,00.0,39.4,31.9,07.9,0000.0,0003.97,0001.17,0000.91
2021-09-23 07:51:00,,0828.4,5.00,0.00,30.2,29.3,00.0,39.4,31.9,08.0,0000.0,0003.73,0001.17,0000.90
2021-09-23 07:52:00,,0828.5,5.00,0.00,30.2,29.3,00.0,39.4,31.9,07.8,0000.0,0003.73,0001.16,0000.90
2021-09-23 07:53:00,,0828.4,5.00,0.00,30.2,29.3,00.0,39.4,31.9,07.8,0000.0,0003.54,0001.16,0000.90
2021-09-23 07:54:00,,0828.3,5.00,0.00,30.2,29.3,00.0,39.4,31.9,07.6,0000.0,0003.60,0001.19,0000.90
2021-09-23 07:55:00,,0828.3,5.01,0.00,30.2,29.3,00.0,39.4,31.9,07.6,0000.0,0003.85,0001.22,0000.91
2021-09-23 07:56:00,,0828.4,5.00,0.00,30.2,29.3,00.0,39.4,31.9,07.7,0000.0,0003.13,0001.22,0000.92
2021-09-23 07:57:00,,0828.3,5.01,0.00,30.3,29.3,00.0,39.4,32.0,07.5,0000.0,0003.16,0001.25,0000.92
2021-09-23 07:58:00,,0828.3,5.00,0.00,30.3,29.3,00.0,39.4,32.0,07.6,0000.0,0003.25,0001.26,0000.92
2021-09-23 07:59:00,,0828.3,4.99,0.00,30.3,29.3,00.0,39.4,31.9,07.5,0000.0,0003.29,0001.26,0000.91
